Weather in Menemen

Turkey     38°36′20″N   27°04′40″E
temp.,
°C
wind,
m/s
gust,
m/s
humid.,
%
clouds,
%
prec.,
mm/h
press.,
hPa
HPBL,
m
23 april, fri
fri2300:00+12nne115887 0.0 102111
03:00+11ssw00585 0.0 102011
06:00+11ese115651 0.0 102011
09:00+16se124198 0.0 1020231
12:00+21w21285 0.0 1020860
15:00+23wnw333155 0.0 1020989
18:00+22nw44365 0.0 1019607
21:00+16nw2254100 0.0 101914
24 april, sat
sat2400:00+14wnw116384 0.0 101911
03:00+14nne007081 0.0 101712
06:00+13n2270100 0.0 101614
09:00+17nnw225999 0.0 1017316
12:00+21nne2346100 0.0 1016813
15:00+21nnw4450100 0.0 1015763
18:00+16n4784100 1.1 1015308
21:00+15nnw3485100 1.1 1014114
25 april, sun
sun2500:00+14nne4687100 0.4 1014191
03:00+13nne2488100 0.4 1012139
06:00+13ene1189100 0.1 101136
09:00+15ne357778 0.3 1011372
12:00+16ne797398 0.1 1010343
15:00+22n654963 0.1 10091175
18:00+19nnw56595 0.8 1009580
21:00+12nne68782 0.8 1011237
26 april, mon
mon2600:00+11n58810 0.0 1012241
03:00+10n68825 0.0 1013249
06:00+11n687937 0.0 1013307
09:00+13nne8106675 0.0 10151044
12:00+17nne810520 0.0 10151120
15:00+20nne78450 0.0 10141469
18:00+18n89490 0.0 10141152
21:00+13nne45650 0.0 101466
27 april, tue
tue2700:00+10n226827 0.0 101527
03:00+9nne22705 0.0 101514
06:00+8ne22720 0.0 101414
09:00+14n12565 0.0 1015304
12:00+20wnw223842 0.0 1014737
15:00+21w433910 0.0 1013580
18:00+21w333699 0.0 1012327
21:00+16s1152100 0.0 101311